User: anonymous   Login
Location: Kosice
(0.0000°N, 21.2500°E)
Time: 16:43:39
(UTC+02:00)
Language:

S3M - Orbit

View from above orbital plane
View from above orbital plane
View from above satellite
View from above satellite

Ground track
Ground track

The orbit data is extracted from the following two-line orbital elements,

1 12508U 81053B   21104.33332329  .00000036  00000-0  21421-4 0  9992
2 12508  82.9618 188.1719 0036037 258.4876 101.2234 13.76369864  7425
Epoch (UTC): 14 April 2021 07:59:59
Eccentricity: 0.0036037
inclination: 82.9618°
perigee height: 950 km
apogee height: 1003 km
right ascension of ascending node: 188.1719°
argument of perigee: 258.4876°
revolutions per day: 13.76369864
mean anomaly at epoch: 101.2234°
orbit number at epoch: 742

The dashed part of the orbit path shows where the satellite is in the earth's shadow,  

DLR